Skip Page Navigation
NASA JPL Caltech
NASA Logo - Jet Propulsion Laboratory + View the NASA Portal
+ Center for Near-Earth Object Studies
JPL Home Earth Solar System Stars & Galaxies Technology
JPL Solar System Dynamics
BODIES ORBITS EPHEMERIDES TOOLS PHYSICAL DATA DISCOVERY FAQ SITE MAP
IMPORTANT: The SSD Announcement email list is now available. Major changes are coming in the near future, including possible hostname and/or URL changes. To be notified of such changes, subscribe to this email list.

Please visit this page for more details.


JPL Small-Body Database Browser
Search: [ help ]  
357098 (2001 TN111)
Classification: Main-belt Asteroid          SPK-ID: 2357098
Ephemeris | Orbit Diagram | Orbital Elements | Mission Design | Physical Parameters | Discovery Circumstances | Close-Approach Data ]

[ show orbit diagram ]
Orbital Elements at Epoch 2458600.5 (2019-Apr-27.0) TDB
Reference: JPL 7 (heliocentric ecliptic J2000)
 Element Value Uncertainty (1-sigma)   Units 
e .2048122516551995 9.5824e-08  
a 2.258735569912138 1.346e-08 au
q 1.796118851944743 2.1227e-07 au
i 6.734765963166367 9.2026e-06 deg
node 9.672605542117797 5.8996e-05 deg
peri 1.639595461277541 6.3536e-05 deg
M 71.69741822338098 1.8661e-05 deg
tp 2458353.556539375947
(2018-Aug-23.05653938)
6.3911e-05 TDB
period 1239.928131689243
3.39
1.1084e-05
3.035e-08
d
yr
n .2903394082280771 2.5953e-09 deg/d
Q 2.721352287879534 1.6217e-08 au
  Orbit Determination Parameters
   # obs. used (total)      157  
   data-arc span      6314 days (17.29 yr)  
   first obs. used      2001-09-20  
   last obs. used      2019-01-03  
   planetary ephem.      DE431  
   SB-pert. ephem.      SB431-N16  
   condition code      0  
   norm. resid. RMS      .60617  
   source      ORB  
   producer      Otto Matic  
   solution date      2019-Jul-13 15:29:40  

Additional Information
 Earth MOID = .795234 au 
 Jupiter MOID = 2.73944 au 
 T_jup = 3.585 
[ show covariance matrix ]

Ephemeris | Orbit Diagram | Orbital Elements | Mission Design | Physical Parameters | Discovery Circumstances | Close-Approach Data ]

Physical Parameter Table
Parameter Symbol Value Units Sigma Reference Notes
absolute magnitude H 17.5   n/a MPO360738  

357098 (2001 TN111)          Discovered 2001-Sep-20 by LINEAR at Socorro
Reference: 20130327/Numbers.arcLast Updated: 2013-03-29

[ show close-approach data ]
Alternate Designations
 2001 TN111 = 2011 SV102 
Ephemeris | Orbit Diagram | Orbital Elements | Mission Design | Physical Parameters | Discovery Circumstances | Close-Approach Data ]
ABOUT SSD CREDITS/AWARDS PRIVACY/COPYRIGHT GLOSSARY LINKS
FirstGov 2019-Dec-07 02:19 UT
(server date/time)  
NASA Home Page
Site Manager:   Ryan S. Park
Webmaster  Alan B. Chamberlin